Simultaneous Nadir Overpasses (SNOs) Predictions

Prediction of SNOs between AQUA and NOAA-19 Satellite Orbit:

Table of predicted SNOs for the next 14.0 days since TLE Epoch: 7/10/2020
Index Date (AQUA) Time (AQUA) Lat,Lon (AQUA) SZA (AQUA ) Date (NOAA-19) Time (NOAA-19) Lat,Lon (NOAA-19) SZA (NOAA-19 ) Distance(km) Time Diff (sec)
1 07/12/2020 12:15:15 -79.69, 148.06 120.77 07/12/2020 12:15:24 -79.70, 148.14 120.77 2.03 9
2 07/14/2020 17:49:00 79.69,-115.44 59.59 07/14/2020 17:48:36 79.67,-115.39 59.57 3.25 24
3 07/14/2020 18:38:25 -79.65, 52.54 120.48 07/14/2020 18:39:39 -79.75, 52.77 120.44 12.23 74
4 07/16/2020 23:22:43 -79.65, -18.57 120.11 07/16/2020 23:21:58 -79.68, -18.48 120.08 3.63 45
5 07/17/2020 00:12:11 79.70, 148.76 59.97 07/17/2020 00:12:52 79.69, 148.93 59.93 3.47 41
6 07/19/2020 04:56:24 79.52, 78.97 60.08 07/19/2020 04:55:18 79.43, 75.69 60.36 67.42 66
7 07/19/2020 05:45:54 -79.66,-114.39 119.70 07/19/2020 05:46:15 -79.68,-114.50 119.68 3.17 21
8 07/21/2020 11:19:39 79.67, -17.93 60.75 07/21/2020 11:19:27 79.65, -18.01 60.75 2.80 12
9 07/23/2020 16:53:22 -79.64, 78.88 118.85 07/23/2020 16:52:49 -79.65, 78.73 118.81 3.38 33
